This demonstration page uses our WeatherBlox Daily Observations layout. Learn more.

Hourly Observations for January 17, 2016

Temp ( °F °C ) Dew Point ( °F °C ) Humidity (%) Winds ( mph kmh ) Pressure ( in mb ) Visibility ( mi km ) Precip ( " mm )
12:15 am 00:15 Cloudy 16 -9 10 -12 79 79 NNE 16 26 30.3 1026 10 16.09344 0 0
12:35 am 00:35 Cloudy 16 -9 9 -13 73 73 NNE 16 26 30.3 1026 10 16.09344 0 0
12:55 am 00:55 Cloudy 14 -10 9 -13 79 79 N 15 24 30.3 1026 10 16.09344 0 0
1:15 am 01:15 Cloudy 14 -10 9 -13 79 79 NNE 16 26 30.3 1026 10 16.09344 0 0
1:35 am 01:35 Cloudy 14 -10 9 -13 79 79 NNE 15 24 30.3 1026 10 16.09344 0 0
1:55 am 01:55 Cloudy 14 -10 9 -13 79 79 NNE 15 24 30.3 1026 10 16.09344 0 0
2:15 am 02:15 Cloudy 12 -11 7 -14 79 79 NNE 17 28 30.3 1026 10 16.09344 0 0
2:35 am 02:35 Cloudy with Light Snow 12 -11 7 -14 79 79 N 18 30 30.33 1027 10 16.09344 0 0
2:55 am 02:55 Cloudy 10 -12 5 -15 79 79 N 16 26 30.36 1028 10 16.09344 0 0
3:15 am 03:15 Cloudy 10 -12 5 -15 79 79 N 13 20 30.36 1028 10 16.09344 0 0
3:35 am 03:35 Mostly Cloudy 9 -13 3 -16 78 78 N 16 26 30.36 1028 10 16.09344 0 0
3:55 am 03:55 Partly Cloudy 9 -13 3 -16 78 78 N 14 22 30.36 1028 10 16.09344 0 0
4:15 am 04:15 Cloudy 9 -13 3 -16 78 78 N 12 19 30.36 1028 10 16.09344 0 0
4:35 am 04:35 Mostly Cloudy 9 -13 1 -17 72 72 N 12 19 30.36 1028 10 16.09344 0 0
4:55 am 04:55 Mostly Cloudy 7 -14 1 -17 78 78 N 13 20 30.39 1029 10 16.09344 0 0
5:15 am 05:15 Partly Cloudy 7 -14 0 -18 72 72 NNE 13 20 30.39 1029 10 16.09344 0 0
5:35 am 05:35 Partly Cloudy 7 -14 1 -17 78 78 NNE 15 24 30.39 1029 10 16.09344 0 0
5:55 am 05:55 Clear 7 -14 0 -18 72 72 NNE 14 22 30.39 1029 10 16.09344 0 0
6:15 am 06:15 Mostly Cloudy 5 -15 0 -18 78 78 NNE 14 22 30.42 1030 10 16.09344 0 0
6:35 am 06:35 Cloudy 5 -15 -2 -19 72 72 NNE 12 19 30.45 1031 10 16.09344 0 0
6:55 am 06:55 Cloudy 5 -15 -2 -19 72 72 NNE 10 17 30.45 1031 10 16.09344 0 0
7:15 am 07:15 Cloudy 5 -15 -4 -20 66 66 NNE 10 17 30.45 1031 10 16.09344 0 0
7:35 am 07:35 Cloudy 5 -15 -4 -20 66 66 NNE 8 13 30.48 1032 10 16.09344 0 0
7:55 am 07:55 Cloudy 5 -15 -4 -20 66 66 N 7 11 30.48 1032 10 16.09344 0 0
8:15 am 08:15 Cloudy 5 -15 -4 -20 66 66 NNE 8 13 30.48 1032 10 16.09344 0 0
8:35 am 08:35 Cloudy 5 -15 -4 -20 66 66 N 7 11 30.48 1032 10 16.09344 0 0
8:55 am 08:55 Cloudy 5 -15 -2 -19 72 72 N 6 9 30.48 1032 10 16.09344 0 0
9:15 am 09:15 Cloudy 5 -15 -4 -20 66 66 N 6 9 30.48 1032 10 16.09344 0 0
9:35 am 09:35 Cloudy 7 -14 -2 -19 66 66 N 8 13 30.5 1033 10 16.09344 0 0
9:55 am 09:55 Mostly Cloudy 7 -14 -2 -19 66 66 N 7 11 30.5 1033 10 16.09344 0 0
10:15 am 10:15 Partly Cloudy 9 -13 -2 -19 61 61 NNW 5 7 30.5 1033 10 16.09344 0 0
10:35 am 10:35 Sunny 9 -13 0 -18 66 66 N 9 15 30.5 1033 10 16.09344 0 0
10:55 am 10:55 Mostly Cloudy 9 -13 0 -18 66 66 N 8 13 30.5 1033 10 16.09344 0 0
11:15 am 11:15 Mostly Cloudy 9 -13 0 -18 66 66 NNW 8 13 30.5 1033 10 16.09344 0 0
11:35 am 11:35 Mostly Cloudy 10 -12 0 -18 61 61 NNW 9 15 30.48 1032 10 16.09344 0 0
11:55 am 11:55 Partly Cloudy 10 -12 0 -18 61 61 NNW 9 15 30.48 1032 10 16.09344 0 0
12:15 pm 12:15 Partly Cloudy 12 -11 0 -18 57 57 N 8 13 30.45 1031 10 16.09344 0 0
12:35 pm 12:35 Partly Cloudy 14 -10 0 -18 52 52 N 8 13 30.42 1030 10 16.09344 0 0
12:55 pm 12:55 Sunny 14 -10 1 -17 57 57 NNW 6 9 30.42 1030 10 16.09344 0 0
1:15 pm 13:15 Sunny 14 -10 1 -17 57 57 N 7 11 30.42 1030 10 16.09344 0 0
1:35 pm 13:35 Mostly Cloudy 16 -9 1 -17 53 53 NNW 6 9 30.39 1029 10 16.09344 0 0
1:55 pm 13:55 Partly Cloudy 18 -8 1 -17 49 49 N 8 13 30.39 1029 10 16.09344 0 0
2:15 pm 14:15 Mostly Cloudy 16 -9 3 -16 57 57 NNW 6 9 30.39 1029 10 16.09344 0 0
2:35 pm 14:35 Cloudy 18 -8 3 -16 53 53 NW 6 9 30.39 1029 10 16.09344 0 0
2:55 pm 14:55 Cloudy 18 -8 3 -16 53 53 NNW 7 11 30.39 1029 10 16.09344 0 0
3:15 pm 15:15 Cloudy 18 -8 3 -16 53 53 N 7 11 30.39 1029 10 16.09344 0 0
3:35 pm 15:35 Cloudy 18 -8 3 -16 53 53 NNW 3 6 30.39 1029 10 16.09344 0 0
3:55 pm 15:55 Partly Cloudy 18 -8 3 -16 53 53 NNW 6 9 30.39 1029 10 16.09344 0 0
4:15 pm 16:15 Partly Cloudy 18 -8 3 -16 53 53 Calm 30.39 1029 10 16.09344 0 0
4:35 pm 16:35 Partly Cloudy 18 -8 3 -16 53 53 Calm 30.39 1029 10 16.09344 0 0
4:55 pm 16:55 Partly Cloudy 18 -8 5 -15 58 58 Calm 30.42 1030 10 16.09344 0 0
5:15 pm 17:15 Mostly Cloudy 18 -8 5 -15 58 58 Calm 30.42 1030 10 16.09344 0 0
5:35 pm 17:35 Cloudy 18 -8 5 -15 58 58 W 5 7 30.42 1030 10 16.09344 0 0
5:55 pm 17:55 Cloudy 18 -8 7 -14 62 62 W 3 6 30.42 1030 10 16.09344 0 0
6:15 pm 18:15 Cloudy 16 -9 7 -14 67 67 WSW 3 6 30.42 1030 10 16.09344 0 0
6:35 pm 18:35 Cloudy 16 -9 7 -14 67 67 Calm 30.42 1030 10 16.09344 0 0
6:55 pm 18:55 Cloudy 18 -8 7 -14 62 62 Calm 30.42 1030 10 16.09344 0 0
7:15 pm 19:15 Cloudy 16 -9 9 -13 73 73 Calm 30.42 1030 10 16.09344 0 0
7:35 pm 19:35 Cloudy 18 -8 9 -13 68 68 Calm 30.42 1030 10 16.09344 0 0
7:55 pm 19:55 Cloudy 18 -8 7 -14 62 62 SW 5 7 30.45 1031 10 16.09344 0 0
8:15 pm 20:15 Cloudy 18 -8 9 -13 68 68 SW 3 6 30.45 1031 10 16.09344 0 0
8:35 pm 20:35 Cloudy 18 -8 9 -13 68 68 Calm 30.45 1031 10 16.09344 0 0
8:55 pm 20:55 Cloudy 18 -8 9 -13 68 68 Calm 30.45 1031 10 16.09344 0 0
9:15 pm 21:15 Cloudy 18 -8 9 -13 68 68 Calm 30.45 1031 10 16.09344 0 0
9:35 pm 21:35 Cloudy 16 -9 9 -13 73 73 E 6 9 30.45 1031 10 16.09344 0 0
9:55 pm 21:55 Mostly Cloudy 16 -9 9 -13 73 73 ESE 3 6 30.42 1030 10 16.09344 0 0
10:15 pm 22:15 Cloudy 16 -9 9 -13 73 73 ESE 5 7 30.42 1030 10 16.09344 0 0
10:35 pm 22:35 Cloudy 16 -9 9 -13 73 73 SE 6 9 30.42 1030 10 16.09344 0 0
10:55 pm 22:55 Cloudy 16 -9 9 -13 73 73 SE 5 7 30.45 1031 10 16.09344 0 0
11:15 pm 23:15 Cloudy 14 -10 9 -13 79 79 SE 5 7 30.45 1031 10 16.09344 0 0
11:35 pm 23:35 Cloudy 14 -10 9 -13 79 79 Calm 30.45 1031 10 16.09344 0 0
11:55 pm 23:55 Cloudy 14 -10 9 -13 79 79 Calm 30.45 1031 10 16.09344 0 0

Powered by AerisWeather